Location: Noordwijk
(52.2400°N, 4.4500°E)
Time: 23:10:36
(UTC+00:00)

CAS-4A - Pass Details

Date: 10 December 2022
Orbit: 514 x 531 km, 43.0° (Epoch: 05 February)

Event Time Altitude Azimuth Distance (km) Brightness Sun altitude
Exits shadow 06:16:48 - 243° (WSW) 2,050 ? -11.8°
Reaches altitude 10° 06:17:40 10° 236° (SW) 1,773 ? -11.7°
Maximum altitude 06:20:48 22° 185° (S) 1,197 ? -11.3°
Drops below altitude 10° 06:23:58 10° 134° (SE) 1,780 ? -10.8°
Sets 06:26:34 0° 119° (ESE) 2,672 ? -10.5°
